Date,TemperatureHighF,TemperatureAvgF,TemperatureLowF,DewpointHighF,DewpointAvgF,DewpointLowF,HumidityHigh,HumidityAvg,HumidityLow,PressureMaxIn,PressureMinIn,WindSpeedMaxMPH,WindSpeedAvgMPH,GustSpeedMaxMPH,PrecipitationSumIn
2013-1-1,34,26,20,18,13,10,72,59,42,30.39,30.12,15,1,18,0.00
2013-1-2,34,23,11,11,8,4,78,56,30,30.45,30.32,9,1,11,0.00
2013-1-3,34,23,14,14,10,7,76,58,40,30.54,30.42,6,0,9,0.00
2013-1-4,33,21,8,10,6,3,83,55,33,30.56,30.39,4,0,5,0.00
2013-1-5,40,28,19,13,6,4,53,40,25,30.55,30.43,9,1,12,0.00
2013-1-6,43,27,15,11,8,4,73,47,26,30.55,30.25,7,0,7,0.00
2013-1-7,47,36,28,20,14,10,58,41,30,30.25,29.97,5,0,13,0.00
2013-1-8,48,33,22,16,13,9,60,44,26,30.33,29.99,12,2,16,0.00
2013-1-9,52,36,23,18,14,10,58,41,25,30.51,30.18,4,0,11,0.00
2013-1-10,47,35,24,22,15,11,68,44,28,30.18,29.76,6,0,16,0.00
2013-1-11,41,32,21,23,7,-5,58,35,22,29.95,29.62,28,4,31,0.00
2013-1-12,31,19,10,2,-3,-9,61,36,22,30.22,29.95,15,1,18,0.00
2013-1-13,30,20,8,11,0,-4,69,43,28,30.31,30.16,6,0,12,0.00
2013-1-14,28,19,12,20,8,-1,84,63,42,30.30,30.11,7,0,12,0.02
2013-1-15,22,13,6,5,1,-2,79,58,43,30.67,30.29,12,1,13,0.00
2013-1-16,36,24,12,15,8,0,67,51,39,30.73,30.56,9,1,12,0.00
2013-1-17,50,31,17,20,14,10,79,53,28,30.71,30.51,3,0,6,0.00
2013-1-18,52,37,26,21,18,16,74,48,28,30.51,30.27,4,0,7,0.00
2013-1-19,50,36,25,20,16,12,67,47,26,30.43,30.29,9,1,15,0.00
2013-1-20,53,36,22,18,14,10,70,42,21,30.39,30.23,10,0,13,0.00
2013-1-21,52,36,21,19,12,8,64,39,23,30.38,30.24,9,1,14,0.00
2013-1-22,58,41,25,18,14,10,62,37,16,30.37,30.24,9,1,13,0.00
2013-1-23,60,42,26,17,12,10,54,32,16,30.40,30.27,4,0,10,0.00
2013-1-24,63,46,30,34,18,9,55,34,20,30.32,30.13,7,1,15,0.00
2013-1-25,57,48,38,38,34,29,73,59,49,30.20,30.06,4,0,9,0.00
2013-1-26,54,48,42,47,40,35,87,75,61,30.07,29.79,15,1,23,0.13
2013-1-27,58,48,42,40,36,32,82,64,38,29.91,29.79,11,2,20,0.00
2013-1-28,54,44,36,37,32,16,78,63,38,29.83,29.62,21,4,31,0.02
2013-1-29,36,30,25,20,14,5,68,51,32,30.08,29.66,28,5,32,0.00
2013-1-30,39,30,20,17,13,8,70,51,34,30.35,30.08,21,3,24,0.00
2013-1-31,50,37,26,23,20,16,75,51,29,30.41,30.27,15,1,18,0.00
2013-2-1,54,39,26,22,19,16,69,47,25,30.32,30.18,13,1,16,0.00
2013-2-2,55,42,30,22,19,15,62,41,25,30.39,30.27,5,0,11,0.00
2013-2-3,52,41,30,28,18,8,66,41,27,30.30,29.97,4,0,9,0.00
2013-2-4,56,43,32,28,24,19,76,50,28,30.09,29.96,9,1,13,0.00
2013-2-5,59,44,33,23,20,16,61,40,22,30.09,29.93,8,1,11,0.00
2013-2-6,59,45,30,29,21,16,64,40,29,29.96,29.79,9,1,17,0.00
2013-2-7,56,44,32,26,22,16,67,44,22,30.10,29.93,11,1,17,0.00
2013-2-8,56,45,32,25,21,18,61,39,27,30.06,29.68,21,2,35,0.00
2013-2-9,47,38,28,21,14,7,59,38,25,29.84,29.54,32,5,38,0.00
2013-2-10,42,34,26,19,14,10,65,44,29,30.03,29.84,12,1,17,0.00
2013-2-11,45,32,21,21,15,5,74,53,20,30.10,29.96,13,1,21,0.00
2013-2-12,39,30,21,21,12,6,77,51,25,30.28,29.99,17,2,20,0.00
2013-2-13,46,33,23,17,13,9,64,44,30,30.29,30.13,14,2,18,0.00
2013-2-14,49,37,26,19,17,14,64,46,28,30.24,30.08,20,2,24,0.00
2013-2-15,50,38,25,21,15,7,75,44,18,30.36,30.23,20,2,28,0.00
2013-2-22,40,33,28,22,20,12,70,59,34,30.09,29.91,13,1,26,0.00
2013-2-23,48,36,22,18,13,8,59,39,26,30.14,29.75,12,1,16,0.00
2013-2-24,38,32,26,22,14,5,87,49,28,29.94,29.64,21,5,28,0.00
2013-2-25,46,35,22,23,14,7,88,46,21,30.19,29.94,17,2,20,0.05
2013-2-26,44,32,26,15,11,4,59,42,23,30.14,29.85,20,2,27,0.00
2013-2-27,45,33,20,12,8,5,66,38,19,30.37,30.14,9,0,12,0.00
2013-2-28,30,29,28,4,3,3,36,33,31,30.35,30.34,0,0,3,0.00
2013-3-1,57,49,40,21,18,13,44,30,23,30.40,30.23,17,2,18,0.00
2013-3-2,65,48,34,26,22,19,62,38,21,30.39,30.11,11,1,13,0.00
2013-3-3,65,53,39,24,19,10,43,28,12,30.11,29.74,17,2,17,0.00
2013-3-4,61,53,44,26,22,19,41,30,21,29.98,29.64,20,3,34,0.00
2013-3-5,60,46,30,23,19,16,64,36,18,30.24,29.98,5,1,14,0.00
2013-3-6,66,54,46,28,24,19,39,31,23,30.12,29.80,13,2,22,0.00
2013-3-7,70,56,38,25,21,15,47,26,17,29.93,29.72,14,1,18,0.00
2013-3-8,60,48,39,40,26,14,84,48,24,29.81,29.60,20,2,26,0.20
2013-3-9,43,37,32,33,23,17,83,59,36,30.00,29.69,20,2,21,0.01
2013-3-10,50,38,29,27,23,16,82,57,30,30.19,29.99,17,1,22,0.00
2013-3-11,61,46,34,22,18,15,50,34,18,30.22,29.95,13,1,20,0.00
2013-3-12,66,51,34,27,23,20,57,35,21,30.16,30.01,8,1,15,0.00
2013-3-13,70,54,37,29,24,19,58,34,20,30.25,30.07,10,1,16,0.00
2013-3-14,75,57,43,27,22,18,44,28,14,30.21,30.02,9,1,14,0.00
2013-3-15,80,61,44,27,21,17,38,23,11,30.05,29.73,10,0,13,0.00
2013-3-16,70,60,50,33,24,17,46,25,18,29.74,29.53,18,3,22,0.00
2013-3-17,68,54,43,35,25,4,64,38,9,29.70,29.52,24,4,29,0.00
2013-3-18,65,52,39,19,12,7,44,21,13,29.88,29.71,23,3,26,0.00
2013-3-19,60,50,41,20,15,8,33,24,18,30.08,29.85,13,1,21,0.00
2013-3-20,63,49,31,28,20,14,55,34,21,30.18,29.78,14,2,20,0.00
2013-3-21,69,57,49,32,23,12,46,29,11,29.78,29.45,29,5,35,0.00
2013-3-22,64,51,36,27,16,10,41,26,15,29.68,29.47,21,3,26,0.00
2013-3-23,50,39,29,27,6,-8,50,27,14,30.07,29.58,29,7,38,0.00
2013-3-24,52,37,24,10,0,-7,52,21,15,30.19,29.95,21,2,26,0.00
2013-3-25,55,39,23,14,9,1,50,29,19,30.24,30.07,19,1,21,0.00
2013-3-26,65,48,30,19,14,8,45,27,16,30.19,29.88,19,3,26,0.00
2013-3-27,71,59,46,22,17,14,29,20,14,29.95,29.78,19,2,20,0.00
2013-3-28,71,61,47,28,20,15,30,21,15,29.93,29.80,26,2,27,0.00
2013-3-29,73,60,46,26,24,21,42,26,15,29.99,29.82,11,1,16,0.00
2013-3-30,72,59,43,28,24,20,43,27,16,29.99,29.79,14,1,21,0.00
2013-3-31,72,60,49,34,29,27,44,32,22,29.90,29.73,9,1,14,0.00
2013-4-1,74,63,48,29,23,14,42,24,13,29.84,29.61,17,1,22,0.00
2013-4-2,67,56,46,25,20,16,35,25,16,29.81,29.59,21,2,24,0.00
2013-4-3,65,51,37,31,27,22,70,42,20,30.01,29.81,14,1,22,0.00
2013-4-4,73,56,38,28,23,17,56,31,14,30.11,29.90,8,0,11,0.00
2013-4-5,76,67,56,25,21,16,23,17,13,29.93,29.56,19,3,25,0.00
2013-4-6,75,63,48,29,25,21,40,25,15,29.76,29.57,13,1,32,0.00
2013-4-7,73,63,48,29,24,21,41,24,15,29.67,29.49,18,2,21,0.00
2013-4-8,75,63,50,31,25,20,40,25,14,29.53,29.09,28,6,38,0.00
2013-4-9,54,44,37,34,30,25,84,59,38,29.76,29.15,20,3,24,0.13
2013-4-10,45,39,34,33,26,20,87,60,42,29.96,29.76,15,2,19,0.06
2013-4-11,62,46,30,31,25,17,68,45,28,29.99,29.78,18,3,27,0.00
2013-4-12,68,56,43,34,30,26,65,39,22,29.83,29.64,12,0,17,0.00
2013-4-13,73,61,42,30,26,20,58,29,15,29.74,29.46,15,3,26,0.00
2013-4-14,75,64,55,30,26,23,32,24,16,29.49,29.33,20,7,31,0.00
2013-4-15,80,64,48,29,24,19,39,24,12,29.53,29.31,24,4,27,0.00
2013-4-16,79,66,53,29,22,14,31,20,10,29.57,29.33,25,6,38,0.00
2013-4-17,59,51,39,29,21,13,43,31,18,29.83,29.40,24,5,30,0.00
2013-4-18,47,39,29,17,8,4,42,29,18,30.24,29.83,22,6,28,0.00
2013-4-19,63,45,26,14,9,5,53,25,13,30.34,29.94,12,1,14,0.00
2013-4-20,67,55,44,23,14,3,28,19,15,29.95,29.69,22,4,31,0.00
2013-4-21,74,57,41,26,21,16,51,28,12,30.00,29.80,16,2,20,0.00
2013-4-22,81,65,48,26,21,18,37,20,11,29.84,29.53,18,4,30,0.00
2013-4-23,66,57,43,29,20,0,48,25,11,29.91,29.57,20,3,29,0.00
2013-4-24,70,50,28,25,20,14,62,34,16,30.11,29.91,8,0,13,0.00
2013-4-25,76,60,46,34,27,22,43,29,17,29.97,29.62,22,3,33,0.00
2013-4-26,57,51,48,30,30,29,50,44,36,29.86,29.81,4,0,6,0.00
2013-4-27,76,70,57,30,16,9,24,13,10,30.02,29.84,9,1,14,0.00
2013-4-28,80,64,45,23,16,10,35,17,9,29.89,29.64,11,1,17,0.00
2013-4-29,85,68,50,28,21,13,28,17,12,29.71,29.45,16,2,21,0.00
2013-4-30,85,71,57,29,23,19,25,17,10,29.56,29.40,16,3,23,0.00
2013-5-1,81,68,54,29,21,7,31,17,11,29.88,29.50,16,3,26,0.00
2013-5-2,61,49,38,28,20,14,58,34,19,30.31,29.89,12,1,18,0.00
2013-5-3,45,38,33,17,15,14,51,38,29,30.32,30.29,6,0,7,0.00
2013-5-8,60,60,60,29,29,29,30,30,30,29.80,29.80,2,2,33,0.00
2013-5-11,71,63,54,41,36,31,57,37,26,30.19,30.10,15,2,23,0.00
2013-5-12,79,63,46,37,34,31,61,37,19,30.18,29.92,11,1,18,0.00
2013-5-13,84,70,55,37,33,29,38,27,17,30.04,29.81,9,1,17,0.00
2013-5-14,87,71,58,43,31,19,42,23,15,29.84,29.58,13,2,22,0.00
2013-5-15,85,72,61,44,38,28,45,32,16,29.70,29.51,16,1,23,0.00
2013-5-16,86,73,56,31,27,20,33,19,10,29.71,29.51,13,2,25,0.00
2013-5-17,87,72,55,32,27,20,33,19,12,29.72,29.52,23,2,30,0.00
2013-5-18,76,69,58,32,26,20,31,20,14,29.68,29.49,15,3,21,0.00
2013-5-19,73,63,55,36,32,23,47,32,17,29.69,29.59,21,4,28,0.00
2013-5-20,75,61,50,36,31,18,54,34,12,29.77,29.60,21,3,26,0.00
2013-5-21,80,63,47,36,32,27,54,33,15,29.85,29.63,16,1,21,0.00
2013-5-22,87,72,54,30,27,24,37,21,11,29.70,29.48,13,2,19,0.00
2013-5-23,91,76,58,46,28,22,38,18,11,29.67,29.46,18,2,29,0.00
2013-5-24,88,74,58,44,36,27,48,28,13,29.74,29.57,16,2,22,0.00
2013-5-25,91,76,57,43,29,21,34,19,10,29.77,29.51,20,2,26,0.00
2013-5-26,89,74,56,30,24,17,31,16,8,29.73,29.52,15,2,19,0.00
2013-5-27,84,70,56,30,22,16,29,17,10,29.70,29.52,20,2,21,0.00
2013-5-28,84,69,54,27,24,21,33,19,10,29.58,29.33,10,2,17,0.00
2013-5-31,73,70,68,18,16,15,13,12,12,29.67,29.61,15,6,29,0.00
2013-6-1,87,71,51,35,21,15,28,16,8,29.80,29.68,21,2,24,0.00
2013-6-2,87,74,62,44,38,32,35,28,21,29.80,29.52,18,2,29,0.00
2013-6-3,92,77,65,50,41,23,52,31,11,29.68,29.44,16,3,22,0.00
2013-6-4,93,79,62,36,29,22,29,17,9,29.66,29.47,11,2,22,0.00
2013-6-5,90,78,64,48,37,30,37,24,13,29.62,29.46,17,2,40,0.00
2013-6-6,91,73,55,46,40,33,56,34,16,29.72,29.56,15,1,19,0.00
2013-6-7,91,73,58,51,44,36,69,39,17,29.72,29.45,10,1,20,0.00
2013-6-8,94,79,62,45,39,32,43,26,12,29.59,29.39,19,3,29,0.00
2013-6-9,97,81,66,49,46,39,50,31,15,29.65,29.50,17,2,22,0.00
2013-6-10,101,86,72,50,43,35,42,24,11,29.64,29.44,21,3,29,0.00
2013-6-11,100,86,68,40,34,25,30,16,9,29.64,29.45,15,1,25,0.00
2013-6-12,100,81,64,40,32,27,31,18,10,29.71,29.56,7,1,15,0.00
2013-6-13,97,80,68,54,42,35,55,27,15,29.68,29.51,27,1,28,0.01
2013-6-14,91,77,67,56,50,46,56,40,22,29.64,29.48,14,1,18,0.05
2013-6-15,94,78,62,51,44,37,58,34,15,29.75,29.59,15,2,33,0.00
2013-6-16,94,78,64,51,43,40,47,30,17,29.76,29.61,19,2,24,0.05
2013-6-17,94,78,63,48,43,39,50,31,15,29.79,29.56,14,1,28,0.00
2013-6-18,92,78,64,53,48,42,59,37,19,29.74,29.50,14,2,28,0.00
2013-6-19,96,83,67,53,35,22,42,22,7,29.60,29.37,18,3,23,0.00
2013-6-20,96,80,62,33,25,16,29,14,6,29.64,29.44,14,2,20,0.00
2013-6-21,96,80,65,48,31,14,45,19,8,29.67,29.46,14,2,21,0.00
2013-6-22,94,78,61,32,27,23,31,16,9,29.66,29.46,13,2,18,0.00
2013-6-23,94,80,62,32,26,20,23,14,9,29.65,29.43,12,1,17,0.00
2013-6-24,94,80,64,34,27,20,27,15,9,29.63,29.46,16,2,19,0.00
2013-6-25,95,79,62,36,30,22,29,17,11,29.71,29.56,12,1,17,0.00
2013-6-26,100,82,64,40,34,28,34,19,12,29.76,29.58,12,1,13,0.00
2013-6-27,105,86,66,40,36,31,34,18,10,29.74,29.57,13,1,22,0.00
2013-6-28,96,85,74,51,46,38,44,27,17,29.78,29.63,19,3,30,0.01
2013-6-29,95,83,76,48,45,41,37,27,18,29.73,29.59,19,2,25,0.00
2013-6-30,81,75,68,52,49,46,56,41,31,29.79,29.60,21,5,28,0.00
2013-7-1,89,72,60,57,51,45,79,52,28,29.88,29.72,14,1,21,0.05
2013-7-2,87,76,66,51,47,44,47,37,26,29.91,29.69,18,2,20,0.00
2013-7-3,89,78,67,56,52,44,61,41,26,29.84,29.59,10,1,16,0.03
2013-7-4,93,77,62,55,51,45,69,44,24,29.69,29.52,15,1,21,0.02
2013-7-5,95,77,66,62,54,47,85,49,25,29.64,29.43,10,1,22,0.34
2013-7-6,92,74,64,62,56,49,87,60,24,29.72,29.53,16,1,22,0.21
2013-7-7,96,79,64,59,56,50,84,50,23,29.72,29.55,6,1,16,0.01
2013-7-8,95,79,68,60,55,52,69,44,27,29.81,29.62,10,1,17,0.01
2013-7-9,95,79,66,60,56,47,76,48,27,29.83,29.67,10,1,20,0.00
2013-7-10,96,83,71,58,54,50,59,38,22,29.76,29.59,12,1,21,0.00
2013-7-11,90,78,69,59,56,52,68,48,31,29.78,29.58,14,2,17,0.00
2013-7-12,91,79,66,60,56,52,71,48,28,29.73,29.57,9,1,15,0.00
2013-7-13,95,80,68,58,54,51,68,43,23,29.73,29.58,15,1,20,0.00
2013-7-14,95,78,66,62,55,51,82,48,23,29.74,29.48,19,1,33,0.20
2013-7-15,74,68,65,61,55,48,85,65,48,29.87,29.66,17,2,22,0.01
2013-7-16,79,69,62,51,48,45,63,48,35,29.96,29.82,11,1,18,0.00
2013-7-17,81,69,58,54,51,47,82,56,35,30.04,29.89,9,1,17,0.05
2013-7-18,85,73,59,56,53,50,73,51,35,29.99,29.76,9,1,15,0.00
2013-7-19,87,69,56,65,59,53,95,72,40,29.82,29.66,11,0,19,1.06
2013-7-20,89,79,70,64,57,54,60,48,35,29.72,29.60,12,1,14,0.02
2013-7-21,89,76,66,60,56,49,77,52,30,29.71,29.56,13,1,21,0.00
2013-7-22,94,79,64,57,53,48,72,44,21,29.71,29.55,9,1,15,0.00
2013-7-23,90,76,66,56,51,46,63,43,24,29.67,29.52,5,0,13,0.00
2013-7-24,90,73,66,58,54,51,69,53,31,29.82,29.61,17,2,25,0.00
2013-7-25,86,74,64,59,57,55,76,58,38,29.88,29.73,10,1,17,0.00
2013-7-26,87,68,61,64,60,56,95,79,40,29.92,29.78,10,0,19,1.56
2013-7-27,73,72,72,59,58,58,63,61,59,29.75,29.73,3,1,14,0.00
2013-7-28,85,75,68,62,57,52,76,57,34,29.73,29.56,17,1,24,0.14
2013-7-29,88,72,62,60,55,46,83,57,26,29.80,29.68,13,1,19,0.00
2013-7-30,94,79,63,53,49,46,63,37,22,29.91,29.75,7,0,13,0.00
2013-7-31,96,84,70,54,51,45,50,33,19,29.87,29.69,11,1,15,0.00
2013-8-1,88,76,67,62,56,51,77,51,34,29.83,29.69,10,1,18,0.02
2013-8-2,91,74,63,61,58,54,83,60,29,29.81,29.65,16,1,23,0.08
2013-8-3,92,76,61,59,56,51,84,54,27,29.82,29.69,10,0,11,0.00
2013-8-4,94,78,64,61,56,51,84,49,26,29.79,29.62,18,1,27,0.26
2013-8-5,90,74,62,61,58,54,88,61,31,29.81,29.66,11,0,18,0.04
2013-8-6,89,76,65,56,53,50,65,47,28,29.74,29.62,11,1,18,0.00
2013-8-7,83,71,61,58,54,51,74,56,36,29.76,29.67,13,1,19,0.01
2013-8-8,85,75,63,55,50,45,74,44,27,29.78,29.68,15,2,19,0.00
2013-8-9,90,74,59,53,48,42,67,41,21,29.86,29.74,10,0,14,0.00
2013-8-10,74,66,61,52,50,46,70,58,40,29.96,29.84,10,0,13,0.00
2013-8-11,84,75,62,55,53,50,77,47,32,29.98,29.81,9,1,10,0.01
2013-8-12,86,73,66,59,55,49,72,54,34,29.90,29.75,9,1,15,0.00
2013-8-13,89,76,62,57,51,44,67,44,25,29.88,29.73,9,0,13,0.00
2013-8-14,89,74,62,57,51,43,72,46,21,29.85,29.70,27,0,31,0.00
2013-8-15,91,75,62,56,50,45,69,45,22,29.85,29.71,9,1,10,0.00
2013-8-16,95,81,67,53,48,41,53,34,16,29.82,29.66,9,1,14,0.00
2013-8-17,94,82,71,58,48,43,52,32,19,29.78,29.60,14,1,19,0.04
2013-8-18,94,79,67,55,50,48,58,39,22,29.79,29.64,13,0,15,0.00
2013-8-19,95,78,66,55,51,46,58,40,20,29.78,29.61,7,1,20,0.00
2013-8-20,92,75,62,61,55,52,76,52,29,29.80,29.63,8,0,15,0.03
2013-8-21,89,77,64,57,53,48,72,45,29,29.79,29.66,11,1,14,0.00
2013-8-22,91,80,65,60,49,40,52,35,27,29.81,29.62,10,1,16,0.00
2013-8-23,87,75,61,53,47,38,52,37,29,29.78,29.63,10,1,18,0.00
2013-8-24,85,75,67,58,53,47,64,47,34,29.83,29.69,10,1,17,0.00
2013-8-25,82,71,65,64,58,54,85,66,42,29.91,29.82,10,0,20,0.29
2013-8-26,89,75,62,65,56,48,79,56,31,29.95,29.77,7,1,15,0.11
2013-8-27,89,76,62,57,52,45,69,46,30,29.84,29.67,8,1,13,0.00
2013-8-28,88,80,69,57,54,48,57,40,31,29.81,29.70,11,2,19,0.00
2013-8-30,94,87,79,59,53,49,40,32,25,29.78,29.67,9,2,19,0.00
2013-8-31,90,75,65,58,55,51,70,51,30,29.74,29.64,5,0,7,0.00
2013-9-2,90,81,67,58,55,51,71,42,31,29.85,29.69,7,0,21,0.13
2013-9-3,93,78,66,61,55,52,73,48,27,29.83,29.67,12,1,16,0.34
2013-9-4,92,78,66,58,49,38,70,39,19,29.89,29.75,10,1,14,0.00
2013-9-5,91,78,63,50,43,38,53,31,20,29.89,29.76,12,1,17,0.00
2013-9-6,91,80,63,48,44,38,44,29,21,29.88,29.69,9,1,16,0.00
2013-9-7,90,76,65,58,51,45,60,42,28,29.80,29.65,13,0,17,0.00
2013-9-8,90,75,62,54,49,45,59,41,27,29.74,29.55,9,1,18,0.00
2013-9-9,87,74,63,61,52,46,63,47,31,29.67,29.50,13,1,18,0.04
2013-9-10,71,65,61,60,56,52,94,76,57,29.83,29.64,9,0,18,0.69
2013-9-11,82,69,60,63,58,51,95,73,34,29.90,29.78,6,0,10,0.02
2013-9-12,70,63,59,64,58,54,93,84,69,29.87,29.77,10,0,16,1.15
2013-9-13,71,62,58,60,58,54,94,86,62,29.87,29.75,7,0,14,0.31
2013-9-14,75,64,57,58,56,54,93,78,52,29.85,29.73,9,0,13,0.83
2013-9-15,58,56,56,56,54,54,95,93,89,29.87,29.79,2,0,10,0.29
2013-9-17,81,75,63,59,55,54,79,51,40,29.86,29.67,11,2,13,0.00
2013-9-18,82,72,64,59,56,50,74,59,36,29.72,29.56,14,1,16,0.00
2013-9-19,83,71,58,60,52,39,92,57,31,29.72,29.62,6,0,13,0.18
2013-9-20,83,69,59,55,50,42,70,52,36,29.82,29.70,9,0,12,0.00
2013-9-21,81,68,54,57,52,49,87,60,38,29.84,29.65,14,1,14,0.00
2013-9-22,79,66,56,56,51,42,92,61,33,29.69,29.35,22,3,44,0.48
2013-9-23,70,58,46,43,37,34,71,47,29,29.93,29.56,18,2,21,0.00
2013-9-24,78,62,46,45,41,36,71,49,28,30.03,29.81,7,0,13,0.00
2013-9-25,83,69,55,46,41,35,54,37,25,29.81,29.46,15,2,21,0.00
2013-9-26,82,69,56,44,40,36,51,37,23,29.60,29.45,19,2,23,0.00
2013-9-27,72,61,47,49,40,28,60,47,39,29.86,29.51,16,2,24,0.00
2013-9-28,66,50,38,32,27,23,61,43,21,30.14,29.86,6,0,13,0.00
2013-9-29,76,55,42,33,28,25,62,39,18,30.13,29.89,7,0,9,0.00
2013-9-30,83,64,47,38,30,26,51,30,17,29.91,29.68,10,0,13,0.00
2013-10-1,83,66,50,35,30,24,48,27,12,29.82,29.69,7,0,11,0.00
2013-10-2,80,65,49,36,31,27,45,29,16,29.83,29.67,7,0,12,0.00
2013-10-3,77,65,52,38,34,31,49,32,19,29.72,29.51,12,1,18,0.00
2013-10-4,61,55,47,34,23,13,47,31,18,30.01,29.60,14,2,21,0.00
2013-10-5,60,49,36,23,21,16,56,34,21,30.21,30.01,12,1,18,0.00
2013-10-6,72,53,37,28,23,17,58,34,18,30.29,30.12,4,0,9,0.00
2013-10-7,75,58,40,31,26,20,56,31,17,30.17,29.92,5,0,16,0.00
2013-10-8,78,65,53,36,31,26,39,28,20,29.93,29.61,11,1,15,0.00
2013-10-9,75,63,48,39,34,29,53,34,21,29.72,29.60,11,1,18,0.00
2013-10-10,70,57,42,47,36,28,80,46,30,29.81,29.48,31,4,37,0.12
2013-10-11,61,54,40,34,32,28,63,43,34,30.00,29.80,10,1,17,0.00
2013-10-12,70,53,36,37,33,28,81,50,27,30.11,29.94,7,0,16,0.00
2013-10-13,77,61,44,45,39,34,75,47,24,29.99,29.74,15,2,26,0.00
2013-10-14,67,58,48,43,31,20,62,37,22,29.88,29.75,17,1,21,0.00
2013-10-15,65,50,36,35,28,23,63,43,28,29.98,29.80,18,1,28,0.00
2013-10-16,60,50,42,35,28,15,67,46,24,30.04,29.89,12,1,19,0.00
2013-10-17,64,48,32,27,21,18,61,37,21,30.11,29.89,5,0,11,0.00
2013-10-18,61,49,36,24,20,16,56,33,20,30.09,29.89,22,2,23,0.00
2013-10-19,66,48,30,28,22,17,71,39,21,30.16,29.97,4,0,9,0.00
2013-10-20,69,54,36,26,21,18,54,29,16,30.02,29.75,15,1,17,0.00
2013-10-21,64,52,38,32,26,19,67,39,25,30.08,29.85,5,0,11,0.00
2013-10-22,69,52,37,30,25,17,65,38,18,30.20,30.04,5,0,7,0.00
2013-10-23,72,55,39,34,27,18,63,36,22,30.11,29.95,6,0,10,0.00
2013-10-24,74,58,44,47,32,24,82,41,23,30.07,29.90,23,1,25,0.05
2013-10-25,66,53,45,48,43,37,90,71,45,30.09,29.94,14,1,24,0.05
2013-10-26,66,51,39,44,38,34,88,63,36,30.21,30.07,7,0,15,0.00
2013-10-27,69,54,41,40,36,34,78,52,29,30.14,29.79,6,0,12,0.01
2013-10-28,69,58,49,41,34,23,68,42,23,29.79,29.66,8,1,15,0.00
2013-10-29,67,59,51,31,27,23,38,30,23,29.84,29.63,17,2,32,0.00
2013-10-30,60,50,38,36,31,25,69,50,32,29.88,29.64,12,1,24,0.00
2013-10-31,53,43,33,29,26,24,73,52,32,30.08,29.88,15,2,23,0.00
2013-11-1,59,46,34,29,26,24,73,48,29,30.22,30.04,13,1,20,0.00
2013-11-2,63,48,33,30,26,23,75,45,25,30.29,29.98,7,0,15,0.00
2013-11-3,66,55,47,36,30,22,53,39,27,29.97,29.61,16,1,19,0.00
2013-11-4,65,54,40,41,35,31,78,51,33,29.81,29.64,12,2,17,0.00
2013-11-18,56,48,40,32,30,27,66,51,36,30.21,30.08,6,0,10,0.00
2013-11-19,62,48,34,35,32,27,79,56,34,30.10,29.81,5,0,10,0.00
2013-11-20,48,44,41,40,35,29,88,73,53,29.90,29.80,4,0,10,0.23
2013-11-21,56,47,42,44,41,38,89,81,57,30.02,29.89,7,0,14,0.20
2013-11-22,44,36,33,42,30,25,91,79,64,30.37,29.99,10,1,15,0.04
2013-11-23,38,34,29,29,24,19,84,69,56,30.45,30.30,16,2,23,0.02
2013-11-24,30,27,24,23,22,20,88,80,72,30.40,30.23,7,0,10,0.09
2013-11-25,44,33,26,29,26,22,90,77,53,30.41,30.19,9,0,12,0.03
2013-11-26,46,33,26,29,25,22,88,73,53,30.51,30.41,6,1,9,0.00
2013-11-27,46,35,26,29,25,22,87,67,48,30.46,30.24,5,0,9,0.00
2013-11-28,50,37,27,28,24,20,85,62,39,30.32,30.21,4,0,6,0.00
2013-11-29,55,40,29,30,26,21,82,60,38,30.40,30.25,4,0,5,0.00
2013-11-30,56,42,31,33,29,26,84,63,40,30.33,30.17,4,0,7,0.00
2013-12-1,48,38,32,31,28,24,85,68,51,30.30,30.20,12,2,17,0.00
2013-12-2,50,38,28,29,25,22,80,61,42,30.23,29.88,10,1,13,0.00
2013-12-3,63,49,35,26,21,16,59,36,18,29.89,29.54,13,1,18,0.00
2013-12-4,58,46,35,31,24,17,67,42,25,29.76,29.45,25,4,39,0.00
2013-12-5,36,28,14,30,23,11,90,84,55,30.08,29.73,5,0,10,0.10
2013-12-6,36,23,11,23,14,8,90,71,43,30.35,30.08,5,0,7,0.15
2013-12-7,32,24,14,28,20,10,87,82,75,30.27,29.99,10,0,16,0.00
2013-12-8,32,28,24,26,16,10,85,60,49,30.09,29.90,14,2,20,0.00
2013-12-9,27,22,13,15,7,0,68,52,33,30.63,30.09,21,3,23,0.00
2013-12-10,36,21,8,18,4,0,73,48,28,30.68,30.48,14,1,20,0.00
2013-12-11,41,27,16,18,12,6,78,53,33,30.66,30.50,4,0,7,0.00
2013-12-12,40,30,20,23,17,12,78,60,43,30.63,30.23,3,0,9,0.00
2013-12-13,44,36,32,32,26,19,88,67,54,30.22,30.00,15,1,21,0.00
2013-12-14,45,34,25,21,18,16,75,53,35,30.47,30.15,11,0,15,0.00
2013-12-15,46,35,27,21,18,15,62,49,34,30.49,30.35,11,1,17,0.00
2013-12-16,54,40,28,24,21,18,68,47,29,30.45,30.31,11,1,14,0.00
2013-12-17,55,42,29,24,22,19,69,45,27,30.43,30.28,9,1,13,0.00
2013-12-18,55,40,29,28,22,18,77,50,30,30.28,29.92,4,0,7,0.00
2013-12-19,57,46,33,26,22,17,62,41,29,29.92,29.62,9,0,15,0.00
2013-12-20,53,42,32,32,24,19,72,50,29,29.75,29.57,10,0,13,0.00
2013-12-21,40,35,32,32,27,23,91,73,57,29.88,29.50,15,2,20,0.27
2013-12-22,42,33,28,25,20,16,73,58,35,30.37,29.88,11,0,18,0.00
2013-12-23,46,35,27,22,18,15,61,50,35,30.54,30.36,9,0,18,0.00
2013-12-24,50,38,26,24,21,17,71,52,35,30.45,30.21,9,0,11,0.00
2013-12-25,45,34,24,22,17,11,79,51,27,30.47,30.31,10,1,12,0.00
2013-12-26,48,34,22,20,15,11,65,47,31,30.48,30.32,3,0,6,0.00
2013-12-27,53,36,23,20,17,14,71,47,25,30.45,30.27,3,0,5,0.00
2013-12-28,49,36,24,20,17,15,70,48,29,30.27,29.95,6,0,9,0.00
2013-12-29,47,38,32,24,21,18,62,50,39,30.21,29.99,7,0,12,0.00
2013-12-30,48,37,28,19,14,10,59,39,23,30.39,30.20,14,1,18,0.00
2013-12-31,50,38,25,23,17,13,79,45,28,30.39,30.17,5,0,7,0.00
2014-1-1,52,40,28,23,19,16,67,44,27,30.31,30.11,20,2,23,0.00
2014-1-2,52,36,23,23,16,12,78,46,21,30.41,30.28,5,0,7,0.00